Regional Weather Roundup
Issued by NWS

Home | Current Version | Previous Version | Text Only | Print | Product List | Glossary Off
Versions: 1 2 3 4 5 6 7 8 9 10 11 12 13 14 15 16 17 18 19 20 21 22 23 24 25 26 27 28 29 30 31 32 33 34 35 36 37 38 39 40 41 42 43 44 45 46 47 48 49 50

292
ASUS44 KLIX 251005
RWRLA
LOUISIANA WEATHER ROUNDUP
NATIONAL WEATHER SERVICE NEW ORLEANS LA
400 AM CST TUE NOV 25 2014

NOTE: "FAIR" INDICATES FEW OR NO CLOUDS BELOW 12,000 FEET WITH NO
      SIGNIFICANT WEATHER AND/OR OBSTRUCTIONS TO VISIBILITY.
      SKY/WX - SKY CONDITION AND SIGNIFICANT WEATHER.
      TMP - AIR TEMPERATURE.    DP   - DEWPOINT TEMPERATURE.
      RH  - RELATIVE HUMIDITY.  PRES - PRESSURE.
      HX  - HEAT INDEX.         WCI  - WIND CHILL INDEX.

*  THESE STATIONS ARE NOT NWS OR FAA STATIONS AND ARE NOT UNDER
   NWS QUALITY CONTROL.

LAZ040-048-061>063-065-066-069-251100-
SOUTHEAST LOUISIANA

CITY           SKY/WX    TMP DP  RH WIND       PRES   REMARKS
N.O. AUDUBON     N/A     56  42  58 MISG        N/A
N.O. INTL ARPT CLOUDY    54  40  59 N10       30.09F
N.O. LAKEFRONT CLOUDY    56  41  57 N20       30.10R
N.O. DOWNTOWN* PTSUNNY   55  36  47 N10G17    30.09S
SLIDELL        CLOUDY    51  39  63 N7        30.09S
BATON ROUGE    MOCLDY    47  37  68 CALM      30.12S
BOOTHVILLE     CLOUDY    58  42  55 N12G23    30.07R
BELLE CHASSE   CLOUDY    56  36  47 N10       30.08R
BOGALUSA*        N/A     47  40  78 N3        30.13S
NEW ROADS*     FAIR      44  42  90 N3        30.12F
GONZALES*      FAIR      49  40  71 N5        30.11F
HAMMOND*       CLOUDY    46  41  81 CALM      30.13S
HOUMA*         PTCLDY    50  40  68 N8        30.08F
PORT FOURCHON* MOSUNNY   59  39  47 N21G28    30.09S

$$

LAZ041-044-053-054-251100-
SOUTHWEST LOUISIANA

CITY           SKY/WX    TMP DP  RH WIND       PRES   REMARKS
LAKE CHARLES   CLEAR     44  36  73 N5        30.16R
LAFAYETTE      CLEAR     47  37  68 N6        30.13S
PATTERSON      PTCLDY    48  39  71 N7        30.12F
SALT POINT       N/A     56  39  53 N5        30.10F
NEW IBERIA     CLEAR     47  40  76 N5        30.13S
CHENAULT AIRPK NOT AVBL

$$

LAZ027-028-251100-
CENTRAL LOUISIANA

CITY           SKY/WX    TMP DP  RH WIND       PRES   REMARKS
FORT POLK      CLEAR     39  33  78 N5        30.15S
ALEXANDRIA INT CLEAR     38  37  97 CALM      30.15F
ALEXANDRIA     CLEAR     32  31  96 CALM      30.15F

$$

LAZ001-002-251100-
NORTHWEST LOUISIANA

CITY           SKY/WX    TMP DP  RH WIND       PRES   REMARKS
SHREVEPORT     CLEAR     41  31  67 NW6       30.18S
BARKSDALE AFB  CLEAR     36  34  92 NW1       30.17F
DTN SHREVEPORT CLEAR     40  33  76 N3        30.17F

$$

LAZ014-016-251100-
NORTHEAST LOUISIANA

CITY           SKY/WX    TMP DP  RH WIND       PRES   REMARKS
MONROE         CLEAR     38  34  85 CALM      30.19R
TALLULAH       CLEAR     30  29  96 CALM      30.17R

$$




USA.gov is the U.S. government's official web portal to all federal, state and local government web resources and services.